Regional Weather Roundup
Issued by NWS

Home | Current Version | Previous Version | Graphics & Text | Print | Product List | Glossary On
Versions: 1 2 3 4 5 6 7 8 9 10 11 12 13 14 15 16 17 18 19 20 21 22 23 24 25 26 27 28 29 30 31 32 33 34 35 36 37 38 39 40 41 42 43 44 45 46 47 48 49 50
000
ASUS43 KIND 071109
RWRIN

WEATHER ROUNDUP FOR INDIANA
NATIONAL WEATHER SERVICE INDIANAPOLIS IN
700 AM EDT TUE JUL 07 2015

NOTE: "FAIR" INDICATES FEW OR NO CLOUDS BELOW 12,000 FEET WITH NO
SIGNIFICANT WEATHER AND/OR OBSTRUCTIONS TO VISIBILITY.

* - STATION DOES NOT REPORT WEATHER SUCH AS PRECIPITATION OR FOG.

+ - STATION NOT QUALITY CONTROLLED BY THE NATIONAL WEATHER SERVICE.
    USE DATA WITH CAUTION...ESPECIALLY DEWPOINT AND RELATIVE
    HUMIDITY OBSERVATIONS.

INZ001>003-010>013-019-020-071200-
NORTHWEST INDIANA

CITY           SKY/WX    TMP DP  RH WIND       PRES   REMARKS
GARY /AIRPORT/ LGT RAIN N/A N/A N/A NW17G33   29.90R
KNOX *+        CLOUDY    70  70 100 SW6       29.87R
LA PORTE +     RAIN      73  73 100 W7        29.87S
MICHIGAN CITY+ LGT RAIN  70  70 100 W5        29.86S
MONTICELLO +   CLOUDY    76  74  95 SW13      29.87R
RENSSELAER +   RAIN      72  72 100 W6        29.89R
VALPARAISO     LGT RAIN  71  69  93 W6        29.87S

$$

LMZ046-743>745-071200-
SOUTHERN LAKE MICHIGAN

STATION/POSITION TIME  TEMP    WIND        PRES    WAVE
                       AIR SEA DIR/SP/G            HT
                 (UTC) (F)     (DEG/KT/KT) (MB)    (FT)
BURNS HARBOR     1100   62     360/ 20     1012.2R
MICHIGAN CITY    1100   70     210/ 11/ 12   N/A
5NW MICH CITY    1100   62 67  360/ 19/ 23   N/A     1

$$

INZ004-005-014>016-021>024-071200-
NORTH CENTRAL INDIANA

CITY           SKY/WX    TMP DP  RH WIND       PRES   REMARKS
ELKHART        LGT RAIN  72  70  94 SW5       29.85
GOSHEN         CLOUDY    72  70  93 SW8       29.86S
LOGANSPORT +   CLOUDY    75  70  83 SW13G18   29.89R
PERU/GRISSOM   CLOUDY    76  72  88 SW12      29.88R
ROCHESTER +    CLOUDY    77  73  88 W12G21    29.88R
SOUTH BEND     CLOUDY    73  71  93 W6        29.87R
WARSAW +       RAIN      75  72  88 W15       29.87R

$$

INZ006>009-017-018-025>027-071200-
NORTHEAST INDIANA

CITY           SKY/WX    TMP DP  RH WIND       PRES   REMARKS
ANGOLA *+        N/A     75  72  88 SW8       29.87F
AUBURN +       CLOUDY    75  70  83 SW6       29.88F
FORT WAYNE     CLOUDY    75  71  87 SW13      29.89S
HUNTINGTON +   CLOUDY    75  72  90 SW8       29.89S

$$

INZ028-029-035-036-043>045-051>053-071200-
WEST CENTRAL INDIANA

CITY           SKY/WX    TMP DP  RH WIND       PRES   REMARKS
CRAWFORDSVL +  CLOUDY    73  70  91 S9        29.91S
GREENCASTLE +  CLOUDY    73  68  83 S6        29.93S HAZE
LAFAYETTE      CLOUDY    76  72  87 SW9       29.88R
TERRE HAUTE    MOCLDY    76  73  91 S9        29.91S

$$

INZ030>032-037>040-046>048-054>057-064-065-071200-
CENTRAL INDIANA

CITY           SKY/WX    TMP DP  RH WIND       PRES   REMARKS
CP ATTERBURY + CLOUDY    73  70  88 S7        29.95S FOG
COLUMBUS       CLOUDY    73  70  88 S9        29.96
FISHERS *+     MOCLDY    73  73 100 SW7       29.92S
FRANKFORT +      N/A    N/A N/A N/A S10       29.92
GREENWOOD *+   CLOUDY    75  70  83 S6        29.95S
INDIANAPOLIS   CLOUDY    77  70  79 SW12      29.91S
-EAGLE CREEK   CLOUDY    76  72  87 SW6       29.92S
KOKOMO *+      MOCLDY    75  70  83 SW14G20   29.89S
MARION +       MOCLDY    74  71  90 SW10      29.91S
MT COMFORT *+  MOCLDY    73 N/A N/A S7        29.94S
SHELBYVILLE    CLOUDY    75  72  90 S9        29.94S
ZIONSVILLE +   MOCLDY    76  70  81 SW9       29.93S

$$

INZ033-034-041-042-049-050-058-059-071200-
EAST CENTRAL INDIANA

CITY           SKY/WX    TMP DP  RH WIND       PRES   REMARKS
MUNCIE         MOCLDY    75  71  87 SW10      29.93S

$$

INZ060-061-067>069-081>083-085>088-071200-
SOUTHWEST INDIANA

CITY           SKY/WX    TMP DP  RH WIND       PRES   REMARKS
EVANSVILLE     LGT RAIN  74  72  93 SW14      29.96S FOG
HUNTINGBURG *+ CLOUDY    73  72  94 S5        29.97S
WASHINGTON +   MOCLDY    76  72  86 SW8       29.93S

$$

INZ062-063-066-070>080-084-089>092-071200-
SOUTH CENTRAL AND SOUTHEAST INDIANA

CITY           SKY/WX    TMP DP  RH WIND       PRES   REMARKS
BLOOMINGTON    CLOUDY    76  72  87 SW7       29.94F
MADISON *+     PTCLDY    72  70  94 S6        30.01R
NORTH VERNON + CLOUDY    73  73 100 S6        29.98R
SEYMOUR +      CLOUDY    75  73  94 S7        29.96S

$$



USA.gov is the U.S. government's official web portal to all federal, state and local government web resources and services.